Flag for Austria Weather past 2 weeks in Schwechat, Lower Austria, Austria

Now
50 °F

Clear.


Feels Like: 45 °F
Forecast: 49 / 66 °F
Wind: 13 mph from Northwest

Location: Vienna Schwechat-Flughafen Airport

Current Time: Apr 21, 2015 at 4:35:50 AM

Latest Report: Apr 21, 2015 at 3:50 AM


Visibility: 10 mi

Pressure: 30.21 "Hg

Humidity: 54%

Dew point: 34 °F

Location of SchwechatLocation

Historic Weather in Schwechat — Graph

°F

Schwechat temperature yesterday

Maximum temperature yesterday: 63 °F (at 2:50 PM)
Minimum temperature yesterday: 36 °F (at 12:20 AM)
Average temperature yesterday: 52 °F

Past Weeks' High & Low Weather Summary

 TemperatureHumidityPressure
High79 °F (Apr 16, 2:20 PM)100% (Apr 17, 5:50 PM)30.48 "Hg (Apr 17, 5:50 PM)
Low32 °F (Apr 19, 6:20 AM)18% (Apr 16, 1:50 PM)29.80 "Hg (Apr 17, 2:50 PM)
Average52 °F56%30.19 "Hg
* Reported Apr 6 3:20 AM — Apr 21 3:20 AM, Schwechat, Weather by CustomWeather, © 2015

Note: Actual official high and low records may vary slightly from our data, if they occured in-between our weather recording intervals... More about our weather records

Advertising

Schwechat weather history for previous 24 hours

 ConditionsComfort  
Time TempWeatherWind HumidityBarometerVisibility
3:20 AM
Tue, Apr 21
50 °FClear.14 mph54%30.18 "Hg10 mi
2:50 AM52 °FClear.14 mph54%30.18 "Hg10 mi
2:20 AM52 °FClear.15 mph54%30.18 "Hg10 mi
1:50 AM52 °FClear.13 mph54%30.18 "Hg10 mi
1:20 AM54 °FClear.12 mph51%30.15 "Hg10 mi
12:50 AM54 °FClear.10 mph51%30.15 "Hg10 mi
12:20 AM54 °FClear.14 mph51%30.15 "Hg10 mi
11:50 PM
Mon, Apr 20
54 °FClear.10 mph51%30.15 "Hg10 mi
11:20 PM55 °FClear.10 mph47%30.12 "Hg10 mi
10:50 PM57 °FClear.12 mph44%30.12 "Hg10 mi
10:20 PM57 °FClear.13 mph44%30.12 "Hg10 mi
9:50 PM59 °FPassing clouds.15 mph39%30.12 "HgN/A
9:20 PM59 °FClear.15 mph39%30.12 "Hg10 mi
8:50 PM59 °FClear.16 mph39%30.09 "Hg10 mi
8:20 PM59 °FSunny.16 mph39%30.09 "Hg10 mi
7:50 PM61 °FSunny.18 mph36%30.07 "Hg10 mi
7:20 PM61 °FSunny.15 mph36%30.07 "Hg10 mi
6:50 PM61 °FSunny.21 mph36%30.07 "Hg10 mi
6:20 PM61 °FSunny.21 mph36%30.07 "Hg10 mi
5:50 PM61 °FSunny.20 mph36%30.04 "Hg10 mi
5:20 PM61 °FSunny.21 mph36%30.04 "Hg10 mi
4:50 PM63 °FPassing clouds.20 mph37%30.04 "HgN/A
4:20 PM61 °FPassing clouds.22 mph39%30.04 "HgN/A
3:50 PM63 °FPassing clouds.24 mph37%30.04 "HgN/A
3:20 PM63 °FSunny.24 mph37%30.07 "Hg10 mi
2:50 PM63 °FSunny.25 mph37%30.07 "Hg10 mi
2:20 PM61 °FSunny.21 mph39%30.07 "Hg10 mi
1:50 PM61 °FSunny.24 mph39%30.07 "Hg10 mi
1:20 PM61 °FPassing clouds.22 mph42%30.09 "HgN/A
12:50 PM59 °FPassing clouds.24 mph42%30.09 "HgN/A
12:20 PM59 °FPassing clouds.23 mph42%30.09 "HgN/A
11:50 AM55 °FPassing clouds.21 mph47%30.12 "HgN/A
11:20 AM55 °FPassing clouds.18 mph47%30.12 "HgN/A
10:50 AM55 °FPassing clouds.20 mph47%30.12 "HgN/A
10:20 AM54 °FSunny.20 mph51%30.12 "Hg10 mi
9:50 AM52 °FSunny.21 mph54%30.12 "Hg10 mi
9:20 AM52 °FScattered clouds.16 mph54%30.15 "HgN/A
8:50 AM50 °FPartly sunny.16 mph54%30.15 "HgN/A
8:20 AM48 °FPartly sunny.14 mph58%30.15 "HgN/A
7:50 AM46 °FPartly sunny.14 mph62%30.12 "HgN/A
7:20 AM45 °FSunny.12 mph66%30.12 "Hg10 mi
6:50 AM43 °FClear.12 mph66%30.12 "Hg10 mi
6:20 AM43 °FClear.12 mph66%30.12 "Hg10 mi
5:50 AM43 °FClear.10 mph66%30.12 "Hg10 mi
5:20 AM41 °FClear.9 mph70%30.12 "Hg10 mi
4:50 AM41 °FClear.8 mph70%30.12 "Hg10 mi
4:20 AM41 °FClear.6 mph70%30.12 "Hg10 mi
Weather by CustomWeather, © 2015

See weather overviewHow to use our weather pages